Time,TemperatureF,DewpointF,PressureIn,WindDirection,WindDirectionDegrees,WindSpeedMPH,WindSpeedGustMPH,Humidity,HourlyPrecipIn,Conditions,Clouds,dailyrainin,SoftwareType,DateUTC
2013-10-03 00:04:00,41.8,35.0,30.13,West,271,0.0,3.0,78,0.00,,,0.00,weatherlink.com 1.10,2013-10-03 07:04:00,
2013-10-03 00:19:00,41.7,36.0,30.13,West,273,0.0,0.0,79,0.00,,,0.00,weatherlink.com 1.10,2013-10-03 07:19:00,
2013-10-03 00:34:00,41.6,36.0,30.13,West,273,0.0,4.0,79,0.00,,,0.00,weatherlink.com 1.10,2013-10-03 07:34:00,
2013-10-03 00:49:00,41.6,36.0,30.13,West,277,0.0,4.0,79,0.00,,,0.00,weatherlink.com 1.10,2013-10-03 07:49:00,
2013-10-03 01:04:00,41.4,35.0,30.14,West,277,0.0,1.0,79,0.00,,,0.00,weatherlink.com 1.10,2013-10-03 08:04:00,
2013-10-03 01:19:00,41.1,35.0,30.14,West,276,0.0,0.0,79,0.00,,,0.00,weatherlink.com 1.10,2013-10-03 08:19:00,
2013-10-03 01:34:00,41.2,36.0,30.14,West,271,0.0,3.0,80,0.00,,,0.00,weatherlink.com 1.10,2013-10-03 08:34:00,
2013-10-03 01:49:00,41.2,36.0,30.15,West,267,0.0,0.0,81,0.00,,,0.00,weatherlink.com 1.10,2013-10-03 08:49:00,
2013-10-03 02:04:00,41.3,36.0,30.16,West,269,1.0,5.0,81,0.00,,,0.00,weatherlink.com 1.10,2013-10-03 09:04:00,
2013-10-03 02:19:00,41.4,36.0,30.15,West,279,0.0,6.0,81,0.00,,,0.00,weatherlink.com 1.10,2013-10-03 09:19:00,
2013-10-03 02:34:00,41.4,36.0,30.16,West,279,0.0,0.0,81,0.00,,,0.00,weatherlink.com 1.10,2013-10-03 09:34:00,
2013-10-03 02:49:00,41.3,36.0,30.16,West,279,0.0,0.0,80,0.00,,,0.00,weatherlink.com 1.10,2013-10-03 09:49:00,
2013-10-03 03:04:00,41.3,36.0,30.16,West,276,0.0,3.0,81,0.00,,,0.00,weatherlink.com 1.10,2013-10-03 10:04:00,
2013-10-03 03:19:00,41.4,36.0,30.16,West,277,0.0,6.0,80,0.00,,,0.00,weatherlink.com 1.10,2013-10-03 10:19:00,
2013-10-03 03:34:00,40.9,36.0,30.17,WNW,284,0.0,6.0,81,0.00,,,0.00,weatherlink.com 1.10,2013-10-03 10:34:00,
2013-10-03 03:49:00,40.5,35.0,30.17,West,275,4.0,6.0,82,0.00,,,0.00,weatherlink.com 1.10,2013-10-03 10:49:00,
2013-10-03 04:04:00,40.1,35.0,30.17,West,275,0.0,2.0,82,0.00,,,0.00,weatherlink.com 1.10,2013-10-03 11:04:00,
2013-10-03 04:19:00,39.5,35.0,30.18,NNW,344,2.0,5.0,83,0.00,,,0.00,weatherlink.com 1.10,2013-10-03 11:19:00,
2013-10-03 04:34:00,40.3,36.0,30.18,NNW,347,7.0,10.0,83,0.00,,,0.00,weatherlink.com 1.10,2013-10-03 11:34:00,
2013-10-03 04:49:00,40.8,36.0,30.18,NNW,333,8.0,11.0,82,0.00,,,0.00,weatherlink.com 1.10,2013-10-03 11:49:00,
2013-10-03 05:04:00,40.7,36.0,30.19,NW,325,7.0,9.0,82,0.00,,,0.00,weatherlink.com 1.10,2013-10-03 12:04:00,
2013-10-03 05:19:00,40.2,35.0,30.19,NNW,328,3.0,7.0,82,0.00,,,0.00,weatherlink.com 1.10,2013-10-03 12:19:00,
2013-10-03 05:34:00,40.2,35.0,30.19,NNW,336,5.0,12.0,81,0.00,,,0.00,weatherlink.com 1.10,2013-10-03 12:34:00,
2013-10-03 05:49:00,40.6,35.0,30.20,NNW,348,8.0,14.0,81,0.00,,,0.00,weatherlink.com 1.10,2013-10-03 12:49:00,
2013-10-03 06:04:00,40.9,35.0,30.21,North,355,10.0,17.0,80,0.00,,,0.00,weatherlink.com 1.10,2013-10-03 13:04:00,
2013-10-03 06:19:00,40.4,35.0,30.21,NNW,336,11.0,14.0,81,0.00,,,0.00,weatherlink.com 1.10,2013-10-03 13:19:00,
2013-10-03 06:34:00,40.4,35.0,30.21,North,360,9.0,16.0,81,0.00,,,0.00,weatherlink.com 1.10,2013-10-03 13:34:00,
2013-10-03 06:49:00,40.3,35.0,30.22,NNE,24,12.0,14.0,82,0.00,,,0.00,weatherlink.com 1.10,2013-10-03 13:49:00,
2013-10-03 07:04:00,40.8,35.0,30.22,North,355,9.0,17.0,80,0.00,,,0.00,weatherlink.com 1.10,2013-10-03 14:04:00,
2013-10-03 07:19:00,41.1,35.0,30.23,North,355,7.0,15.0,79,0.00,,,0.00,weatherlink.com 1.10,2013-10-03 14:19:00,
2013-10-03 07:34:00,41.3,35.0,30.23,North,11,11.0,17.0,79,0.00,,,0.00,weatherlink.com 1.10,2013-10-03 14:34:00,
2013-10-03 07:49:00,41.5,35.0,30.24,NNE,20,12.0,21.0,79,0.00,,,0.00,weatherlink.com 1.10,2013-10-03 14:49:00,
2013-10-03 08:04:00,41.7,36.0,30.24,North,11,13.0,19.0,79,0.00,,,0.00,weatherlink.com 1.10,2013-10-03 15:04:00,
2013-10-03 08:20:00,42.0,36.0,30.24,North,5,13.0,24.0,78,0.00,,,0.00,weatherlink.com 1.10,2013-10-03 15:20:00,
2013-10-03 08:35:00,42.2,36.0,30.24,North,360,11.0,20.0,78,0.00,,,0.00,weatherlink.com 1.10,2013-10-03 15:35:00,
2013-10-03 08:50:00,42.6,36.0,30.25,North,351,15.0,23.0,77,0.00,,,0.00,weatherlink.com 1.10,2013-10-03 15:50:00,
2013-10-03 09:05:00,42.7,36.0,30.25,North,355,12.0,23.0,76,0.00,,,0.00,weatherlink.com 1.10,2013-10-03 16:05:00,
2013-10-03 09:20:00,43.2,36.0,30.26,North,355,18.0,23.0,77,0.00,,,0.00,weatherlink.com 1.10,2013-10-03 16:20:00,
2013-10-03 09:35:00,43.3,37.0,30.27,North,360,11.0,20.0,77,0.00,,,0.00,weatherlink.com 1.10,2013-10-03 16:35:00,
2013-10-03 09:50:00,44.6,37.0,30.27,North,360,12.0,20.0,75,0.00,,,0.00,weatherlink.com 1.10,2013-10-03 16:50:00,
2013-10-03 10:05:00,44.1,36.0,30.28,North,360,17.0,22.0,74,0.00,,,0.00,weatherlink.com 1.10,2013-10-03 17:05:00,
2013-10-03 10:20:00,43.8,36.0,30.29,North,360,14.0,25.0,75,0.00,,,0.00,weatherlink.com 1.10,2013-10-03 17:20:00,
2013-10-03 10:35:00,44.8,38.0,30.29,North,5,16.0,21.0,76,0.00,,,0.00,weatherlink.com 1.10,2013-10-03 17:35:00,
2013-10-03 10:50:00,45.2,36.0,30.29,North,355,18.0,24.0,71,0.00,,,0.00,weatherlink.com 1.10,2013-10-03 17:50:00,
2013-10-03 11:05:00,46.0,38.0,30.30,North,349,19.0,22.0,73,0.00,,,0.00,weatherlink.com 1.10,2013-10-03 18:05:00,
2013-10-03 11:20:00,46.9,38.0,30.30,NNW,343,15.0,22.0,72,0.00,,,0.00,weatherlink.com 1.10,2013-10-03 18:20:00,
2013-10-03 11:35:00,46.6,37.0,30.30,NNW,348,17.0,25.0,70,0.00,,,0.00,weatherlink.com 1.10,2013-10-03 18:35:00,
2013-10-03 11:50:00,46.6,37.0,30.31,NNW,327,19.0,24.0,70,0.00,,,0.00,weatherlink.com 1.10,2013-10-03 18:50:00,
2013-10-03 12:05:00,46.9,37.0,30.31,North,350,17.0,22.0,69,0.00,,,0.00,weatherlink.com 1.10,2013-10-03 19:05:00,
2013-10-03 12:20:00,47.4,38.0,30.31,NNW,344,11.0,24.0,69,0.00,,,0.00,weatherlink.com 1.10,2013-10-03 19:20:00,
2013-10-03 12:35:00,47.6,38.0,30.31,NNW,334,11.0,21.0,69,0.00,,,0.00,weatherlink.com 1.10,2013-10-03 19:35:00,
2013-10-03 12:50:00,47.4,38.0,30.31,NNW,342,12.0,19.0,69,0.00,,,0.00,weatherlink.com 1.10,2013-10-03 19:50:00,
2013-10-03 13:05:00,48.0,38.0,30.32,NNW,328,13.0,19.0,68,0.00,,,0.00,weatherlink.com 1.10,2013-10-03 20:05:00,
2013-10-03 13:20:00,48.8,37.0,30.32,NNW,336,9.0,18.0,64,0.00,,,0.00,weatherlink.com 1.10,2013-10-03 20:20:00,
2013-10-03 13:35:00,47.9,37.0,30.32,NW,326,14.0,21.0,65,0.00,,,0.00,weatherlink.com 1.10,2013-10-03 20:35:00,
2013-10-03 13:50:00,48.4,35.0,30.32,North,360,15.0,20.0,61,0.00,,,0.00,weatherlink.com 1.10,2013-10-03 20:50:00,
2013-10-03 14:05:00,47.3,35.0,30.32,NNW,327,9.0,17.0,62,0.00,,,0.00,weatherlink.com 1.10,2013-10-03 21:05:00,
2013-10-03 14:20:00,47.1,34.0,30.32,NNW,340,11.0,18.0,61,0.00,,,0.00,weatherlink.com 1.10,2013-10-03 21:20:00,
2013-10-03 14:35:00,46.9,34.0,30.32,NNW,344,12.0,18.0,62,0.00,,,0.00,weatherlink.com 1.10,2013-10-03 21:35:00,
2013-10-03 14:50:00,47.0,35.0,30.33,NW,318,17.0,18.0,64,0.00,,,0.00,weatherlink.com 1.10,2013-10-03 21:50:00,
2013-10-03 15:05:00,47.4,34.0,30.34,WNW,298,10.0,17.0,61,0.00,,,0.00,weatherlink.com 1.10,2013-10-03 22:05:00,
2013-10-03 15:20:00,47.9,35.0,30.34,NNW,344,13.0,20.0,62,0.00,,,0.00,weatherlink.com 1.10,2013-10-03 22:20:00,
2013-10-03 15:35:00,47.6,35.0,30.34,NW,305,16.0,18.0,61,0.00,,,0.00,weatherlink.com 1.10,2013-10-03 22:35:00,
2013-10-03 15:50:00,47.3,36.0,30.35,NNW,344,11.0,17.0,64,0.00,,,0.00,weatherlink.com 1.10,2013-10-03 22:50:00,
2013-10-03 16:06:00,47.8,36.0,30.35,NNW,328,9.0,16.0,64,0.00,,,0.00,weatherlink.com 1.10,2013-10-03 23:06:00,
2013-10-03 16:21:00,47.3,36.0,30.35,North,355,11.0,16.0,64,0.00,,,0.00,weatherlink.com 1.10,2013-10-03 23:21:00,
2013-10-03 16:36:00,47.8,36.0,30.36,NW,321,8.0,12.0,63,0.00,,,0.00,weatherlink.com 1.10,2013-10-03 23:36:00,
2013-10-03 16:51:00,48.4,36.0,30.36,NNW,339,9.0,14.0,63,0.00,,,0.00,weatherlink.com 1.10,2013-10-03 23:51:00,
2013-10-03 17:06:00,48.0,37.0,30.36,North,355,11.0,14.0,65,0.00,,,0.00,weatherlink.com 1.10,2013-10-04 00:06:00,
2013-10-03 17:21:00,47.3,36.0,30.36,NNW,338,4.0,15.0,65,0.00,,,0.00,weatherlink.com 1.10,2013-10-04 00:21:00,
2013-10-03 17:36:00,47.0,36.0,30.37,NNW,333,8.0,12.0,66,0.00,,,0.00,weatherlink.com 1.10,2013-10-04 00:36:00,
2013-10-03 17:51:00,46.9,36.0,30.37,NNW,340,10.0,13.0,67,0.00,,,0.00,weatherlink.com 1.10,2013-10-04 00:51:00,
2013-10-03 18:06:00,46.0,36.0,30.38,North,5,7.0,11.0,69,0.00,,,0.00,weatherlink.com 1.10,2013-10-04 01:06:00,
2013-10-03 18:21:00,44.9,36.0,30.39,NNW,333,5.0,8.0,70,0.00,,,0.00,weatherlink.com 1.10,2013-10-04 01:21:00,
2013-10-03 18:36:00,43.5,35.0,30.39,NW,317,4.0,6.0,72,0.00,,,0.00,weatherlink.com 1.10,2013-10-04 01:36:00,
2013-10-03 18:51:00,42.4,35.0,30.40,NW,326,3.0,8.0,75,0.00,,,0.00,weatherlink.com 1.10,2013-10-04 01:51:00,
2013-10-03 19:06:00,41.8,35.0,30.40,NW,323,2.0,9.0,78,0.00,,,0.00,weatherlink.com 1.10,2013-10-04 02:06:00,
2013-10-03 19:21:00,40.9,35.0,30.40,WNW,296,3.0,7.0,79,0.00,,,0.00,weatherlink.com 1.10,2013-10-04 02:21:00,
2013-10-03 19:36:00,40.6,35.0,30.41,NNW,338,0.0,0.0,79,0.00,,,0.00,weatherlink.com 1.10,2013-10-04 02:36:00,
2013-10-03 19:51:00,40.1,34.0,30.41,NW,325,0.0,2.0,80,0.00,,,0.00,weatherlink.com 1.10,2013-10-04 02:51:00,
2013-10-03 20:06:00,39.7,34.0,30.42,NW,325,0.0,0.0,81,0.00,,,0.00,weatherlink.com 1.10,2013-10-04 03:06:00,
2013-10-03 20:21:00,39.6,34.0,30.42,NW,326,0.0,3.0,81,0.00,,,0.00,weatherlink.com 1.10,2013-10-04 03:21:00,
2013-10-03 20:36:00,39.3,34.0,30.42,NNW,327,0.0,0.0,80,0.00,,,0.00,weatherlink.com 1.10,2013-10-04 03:36:00,
2013-10-03 20:51:00,38.8,33.0,30.42,NNW,327,0.0,0.0,81,0.00,,,0.00,weatherlink.com 1.10,2013-10-04 03:51:00,
2013-10-03 21:36:00,37.4,32.0,30.43,West,275,5.0,5.0,82,0.00,,,0.00,weatherlink.com 1.10,2013-10-04 04:36:00,
2013-10-03 21:51:00,37.7,33.0,30.43,West,279,0.0,5.0,83,0.00,,,0.00,weatherlink.com 1.10,2013-10-04 04:51:00,
2013-10-03 22:06:00,37.2,32.0,30.43,West,280,2.0,2.0,82,0.00,,,0.00,weatherlink.com 1.10,2013-10-04 05:06:00,
2013-10-03 22:36:00,36.2,32.0,30.44,WNW,299,4.0,4.0,83,0.00,,,0.00,weatherlink.com 1.10,2013-10-04 05:36:00,
2013-10-03 22:51:00,35.6,31.0,30.45,NW,310,3.0,5.0,84,0.00,,,0.00,weatherlink.com 1.10,2013-10-04 05:51:00,
2013-10-03 23:06:00,35.4,31.0,30.45,West,281,6.0,8.0,85,0.00,,,0.00,weatherlink.com 1.10,2013-10-04 06:06:00,
2013-10-03 23:21:00,35.1,31.0,30.45,WNW,299,5.0,6.0,84,0.00,,,0.00,weatherlink.com 1.10,2013-10-04 06:21:00,
2013-10-03 23:36:00,35.0,31.0,30.45,NW,305,2.0,6.0,85,0.00,,,0.00,weatherlink.com 1.10,2013-10-04 06:36:00,
2013-10-03 23:51:00,34.2,30.0,30.46,NW,304,3.0,5.0,83,0.00,,,0.00,weatherlink.com 1.10,2013-10-04 06:51:00,